Погода в Маслово

Россия / Курганская область     55°04′45″N   64°15′25″E
темп.,
°C
ветер,
м/с
пор.,
м/с
влажн.,
%
обл.,
%
осадки,
мм/ч
давл.,
гПа
погр.,
м
23 апреля, пт
пт2323:00+9ю3453100 0.0 103464
02:00+7ю4761100 0.0 1034114
05:00+7ю51172100 0.0 1035272
08:00+8ю51164100 0.0 1035402
11:00+12ю7846100 0.0 1034924
14:00+14ю81038100 0.0 10341728
17:00+13ююв7840100 0.0 10331560
20:00+10ююв61140100 0.0 1033396
24 апреля, сб
сб2423:00+8ююв51141100 0.0 1031307
02:00+7ююв51145100 0.0 1030372
05:00+6ююв5851100 0.0 1029296
08:00+6юв5756100 0.0 1028373
11:00+8юв6852100 0.0 1027636
14:00+10юв7940100 0.0 10241175
17:00+11ююв7932100 0.0 10231876
20:00+9юв61136100 0.0 1022439
25 апреля, вс
вс2523:00+7ююв61150100 0.0 1021750
02:00+6вюв41165100 0.0 1019549
05:00+5вюв61265100 0.0 1017336
08:00+7юв61061100 0.0 1016515
11:00+8ююв5857100 0.0 1016863
14:00+8ююз4663100 0.0 1016664
17:00+13зюз474539 0.0 10151650
20:00+11ююз4963100 0.0 1015297
26 апреля, пн
пн2623:00+10зюз612705 0.4 1015600
02:00+5зюз3883100 0.0 1017165
05:00+5зюз410761 0.0 1018260
08:00+7зюз710580 0.0 1019952
11:00+11з81039100 0.0 10192509
14:00+12з81035100 0.0 10202673
17:00+13з61027100 0.0 10202654
20:00+10юз3638100 0.0 102192
27 апреля, вт
вт2723:00+9ююз3442100 0.0 102048
02:00+8ююз3750100 0.0 1019182
05:00+5вюв4892100 3.4 1017354
08:00+6вюв71293100 3.6 1013466
11:00+11ю61281100 5.3 1008568
14:00+15ю51252100 1.4 1003834
17:00+11з41384100 2.4 1003495
20:00+10з3790100 0.7 1003343